Wind_Gust
2 4 3 2 2 3 4 4 7 9 6 9 9 11 22 5 18 19 22 11 16 13 11 14 14 10 20 21 24 18 13 7 8 13 12 14 10 20 21 20 19 18 18 17 16 16 16 18 21 22 23 24 25 24 24 26 27 25 23 21 20 19 20 20 21 21 20 19 19 20 20 20 20 19 18 18 17 18 19 21 20 20 20 21 21 22 21 21 21 20 19 17 17 17 18 17 17
2 2 3 1 4 2 5 4 7 2 4 7 23 3 16 8 6 12 18 12 14 12 12 20 24 29 31 27 25 24 24 16 11 16 16 16 17 19 19 21 22 22 17 17 16 16 15 18 21 22 23 25 24 25 25 25 25 25 24 23 22 20 21 21 21 21 21 19 20 20 20 19 20 20 19 17 13 15 14 17 18 19 19 19 20 20 20 20 20 20 18 16 14 15 15 15 15
3 7 7 3 2 4 3 4 7 5 6 16 16 20 6 12 7 14 14 16 17 9 8 14 16 13 15 13 23 14 10 11 22 18 22 17 26 16 16 17 19 20 19 17 17 16 15 17 21 22 24 23 23 25 25 25 24 24 24 22 21 20 20 21 21 21 21 20 20 20 21 20 20 19 17 15 13 12 14 14 17 17 18 18 18 19 20 20 20 20 19 17 14 14 14 14 14
5 4 3 5 6 3 6 5 5 10 10 16 16 10 12 11 17 19 19 19 15 22 10 7 16 13 19 27 24 23 20 11 10 22 29 17 18 21 19 19 18 19 18 17 18 16 15 19 20 21 23 23 24 25 24 24 25 24 23 22 22 21 20 20 21 20 21 21 21 20 21 20 19 20 19 18 18 18 17 15 14 17 16 16 16 18 18 19 19 20 20 17 13 13 13 13 14
5 3 4 4 6 4 5 9 8 9 17 16 13 7 9 9 14 16 18 15 2 13 14 18 23 10 18 16 5 12 14 16 14 10 25 15 21 21 20 18 19 20 19 17 18 17 17 21 21 22 22 24 23 25 24 25 24 23 23 22 21 21 21 20 20 20 21 21 21 20 21 20 19 20 20 19 19 18 17 17 15 16 17 18 17 15 16 18 19 20 19 16 13 13 12 13 13
4 4 2 4 7 7 8 6 9 11 18 6 10 18 4 10 13 18 13 7 8 13 15 8 17 10 16 11 11 17 20 18 14 11 23 19 23 23 20 18 19 20 18 17 17 16 18 21 22 22 22 24 24 24 24 25 24 23 23 22 22 22 21 20 20 20 21 21 21 21 21 20 20 20 19 18 17 18 18 18 18 16 15 18 16 16 18 18 19 19 18 14 13 12 12 12 11
4 4 5 3 10 5 8 6 10 13 24 11 27 21 16 20 23 22 23 5 11 12 18 22 27 21 25 18 18 14 6 16 17 18 15 24 23 21 19 19 20 18 17 17 16 17 19 21 22 22 23 24 24 24 24 25 24 23 23 23 22 22 22 20 19 19 19 20 21 21 21 20 20 20 19 18 17 18 16 16 17 17 16 13 17 17 16 17 19 19 17 14 13 12 11 10 9
2 5 5 6 8 6 7 7 13 11 13 15 14 17 21 22 22 25 24 7 10 11 8 20 13 21 8 7 17 10 9 9 22 21 25 25 22 20 19 20 20 17 16 15 15 15 21 21 21 21 22 22 23 23 24 24 23 23 22 22 22 20 20 20 19 18 17 19 20 20 20 19 20 20 19 19 18 18 17 16 17 17 16 16 17 17 17 17 18 18 17 13 11 10 9 10 9
2 4 4 5 4 8 6 12 16 12 19 15 18 21 22 22 19 16 14 5 7 8 13 13 18 18 7 17 15 4 16 20 24 25 23 22 21 19 21 19 22 18 16 16 15 15 15 18 19 20 21 21 23 24 24 23 23 22 22 21 20 18 18 18 19 17 16 16 17 18 19 18 18 19 18 18 18 17 17 16 16 17 17 17 18 18 18 17 17 16 16 13 10 9 9 8 9
4 6 5 10 6 6 8 16 7 15 16 14 16 21 18 20 21 16 11 7 14 12 6 6 10 21 20 23 17 7 18 20 22 20 20 21 19 18 17 16 19 21 17 16 15 15 15 18 20 20 21 22 22 22 22 20 21 20 20 19 18 17 17 17 16 16 15 16 17 17 17 17 17 17 17 17 17 17 16 16 16 18 17 17 17 17 16 16 15 15 15 14 10 8 8 8 9
7 6 4 4 4 8 12 16 12 18 17 16 19 24 19 22 24 15 5 7 15 18 15 25 26 25 19 13 10 5 12 18 23 23 20 20 20 20 19 16 18 18 20 16 16 15 17 16 21 21 21 21 20 19 19 19 19 18 18 18 17 18 17 16 15 16 17 17 17 17 16 16 16 17 17 17 17 16 16 16 17 18 17 16 16 15 15 15 14 13 13 12 10 6 7 7 8
5 6 7 6 9 10 11 10 14 17 17 16 27 24 14 24 16 10 4 14 18 23 17 10 22 28 18 18 13 11 10 12 15 16 19 21 22 21 20 18 17 16 17 18 16 15 15 16 16 21 20 19 19 19 18 19 19 19 19 18 18 17 15 14 14 14 15 16 15 14 14 15 16 17 17 17 16 16 16 17 18 18 17 17 16 15 14 14 14 12 11 10 9 6 5 7 7
7 3 2 5 9 4 12 10 17 15 17 21 18 27 16 20 14 8 4 7 12 12 6 9 31 11 18 15 13 9 13 10 12 17 20 23 22 21 19 19 19 17 17 16 17 16 14 13 15 16 18 23 19 18 19 19 19 19 19 19 17 16 15 14 14 14 14 14 13 13 12 14 17 17 17 17 17 16 15 17 17 17 16 15 15 15 14 12 11 12 10 9 8 6 5 7 8
10 10 4 10 4 7 12 12 11 11 21 20 14 9 7 6 4 7 10 16 12 9 9 23 21 24 20 19 13 13 13 10 12 15 21 22 21 21 20 20 18 17 16 16 16 16 14 13 14 15 17 17 16 18 18 19 18 20 19 18 17 16 15 15 14 13 12 13 14 13 14 16 17 17 17 17 17 17 16 16 16 16 16 15 15 14 13 12 11 10 9 8 7 6 6 7 8
14 6 5 8 10 7 8 14 7 8 22 15 18 9 11 5 4 7 22 19 12 10 17 12 33 21 22 23 16 17 18 14 14 17 21 21 22 21 20 20 18 17 16 15 15 16 15 14 14 13 13 14 14 13 13 18 19 18 19 19 18 17 15 15 15 13 14 13 14 14 15 16 16 17 16 16 16 17 17 16 16 15 14 14 14 13 12 12 11 9 8 7 5 4 5 6 7
16 8 8 6 11 7 18 10 2 8 21 7 11 9 5 4 4 8 11 19 14 7 7 14 9 10 25 20 29 24 21 16 16 19 23 23 20 19 20 19 18 17 15 15 14 13 14 15 13 14 14 13 12 12 14 14 18 21 20 19 18 17 17 16 14 14 16 15 15 15 15 14 14 14 18 16 16 16 15 13 15 13 13 13 12 12 11 10 9 9 8 6 5 3 3 6 7
7 10 8 10 17 9 12 7 5 15 14 18 15 12 7 7 13 15 9 17 21 4 11 7 4 13 29 16 23 26 22 18 18 21 21 21 21 19 18 17 17 14 14 12 12 14 14 15 14 14 12 13 14 14 13 13 18 20 18 18 18 18 16 17 15 16 15 13 13 12 10 9 8 9 10 9 13 11 13 15 14 14 13 11 11 11 10 10 10 9 7 5 4 2 3 5 8
8 15 13 12 16 18 14 9 9 13 24 19 20 18 3 6 11 10 18 20 19 17 17 15 21 17 16 18 22 25 23 23 22 25 21 21 19 20 19 17 18 16 14 13 11 13 15 14 15 13 14 14 14 14 12 12 14 14 11 11 12 14 15 15 13 12 13 9 12 11 8 9 8 8 8 11 7 11 13 15 15 13 12 11 10 10 10 9 9 8 7 6 3 2 5 6 6
13 11 13 18 13 30 5 5 13 16 17 20 19 22 4 4 6 7 19 6 20 22 14 18 21 18 21 23 22 21 21 20 20 21 23 22 21 21 20 18 15 16 14 13 12 13 13 14 13 14 13 14 14 12 13 12 11 9 8 9 11 11 13 11 9 12 8 9 8 8 8 7 8 6 7 10 8 12 13 15 14 13 11 10 9 9 9 8 7 7 6 5 3 3 3 2 3
11 10 14 20 17 17 8 10 18 7 12 25 27 18 7 6 6 10 15 13 19 22 21 14 22 21 20 21 21 22 20 19 18 19 20 19 18 21 20 18 17 15 15 15 16 13 13 14 13 13 14 13 14 13 12 11 9 8 9 9 9 8 9 10 9 9 9 8 8 7 8 7 7 7 13 17 14 9 11 14 15 12 11 9 8 7 8 6 8 7 5 6 7 6 4 4 5
8 11 16 19 8 11 14 12 7 11 13 16 20 7 11 15 8 14 17 15 10 15 22 26 24 26 23 22 23 21 21 18 15 16 18 17 14 15 17 19 20 17 16 15 15 14 13 14 15 14 15 13 14 14 13 12 9 9 9 9 8 8 10 9 9 10 9 9 7 8 8 6 6 5 5 9 7 8 8 8 8 6 4 3 6 4 5 5 5 4 7 7 6 4 4 3 6
8 10 13 19 15 17 20 16 15 16 18 9 13 11 7 8 9 13 19 20 20 23 18 27 32 30 31 27 22 21 20 17 16 15 16 18 20 18 16 14 11 11 14 17 15 16 14 14 15 15 14 13 14 14 14 14 12 10 10 9 9 8 9 8 8 9 9 8 7 8 8 9 8 8 8 7 8 8 9 8 7 5 3 3 4 4 3 5 6 6 6 7 6 4 4 5 5
17 15 11 14 16 19 13 12 10 10 13 17 16 11 2 6 11 8 8 14 15 10 20 25 29 30 29 27 26 21 19 19 18 19 20 19 17 18 19 19 20 19 17 16 15 15 15 14 15 15 15 15 15 13 13 12 10 10 9 9 10 9 8 9 8 8 8 7 7 7 10 9 9 9 9 8 8 8 8 7 7 6 4 4 3 5 5 6 7 7 7 6 5 4 5 7 6
13 22 9 16 12 19 19 19 16 15 11 12 12 9 4 5 8 8 8 9 17 22 20 22 25 25 26 26 20 22 20 20 22 23 21 19 21 20 19 20 18 16 17 17 17 17 17 17 16 16 16 17 14 14 14 11 9 10 10 11 9 11 10 8 8 8 9 7 6 5 7 8 10 10 8 8 8 8 7 6 6 6 6 5 4 5 5 6 6 5 5 6 5 4 6 8 5
13 21 16 19 17 16 13 14 14 11 10 13 11 12 15 5 5 6 5 14 17 18 17 20 25 27 25 25 23 20 20 19 21 14 11 13 14 15 15 14 17 20 20 18 17 19 17 18 18 17 16 16 15 14 13 10 9 10 9 10 10 10 9 9 8 8 9 6 5 6 7 9 7 8 9 7 7 8 7 5 5 5 3 4 4 3 6 6 5 5 6 7 4 5 8 8 6
12 17 16 15 18 16 15 12 13 14 8 9 6 7 12 6 8 3 14 13 15 20 19 21 23 24 26 24 24 24 23 24 19 15 18 13 15 16 14 17 14 23 20 18 18 16 16 15 18 18 18 17 15 13 12 12 10 10 9 10 10 10 9 9 8 8 8 8 7 5 6 8 9 9 9 7 9 8 6 5 5 4 4 3 4 5 4 6 5 6 6 5 5 6 9 7 7
7 9 9 12 13 14 12 16 19 17 10 6 7 5 5 8 4 8 4 15 18 20 21 19 23 23 21 21 21 20 25 25 23 17 10 11 16 18 14 13 12 14 19 19 17 17 15 16 13 14 12 13 13 13 12 12 10 9 10 10 10 10 10 10 8 8 8 7 7 6 5 5 7 7 9 8 7 7 6 6 5 5 5 4 4 6 3 4 4 6 6 5 6 8 8 5 6
10 12 13 15 14 15 17 9 13 7 14 10 12 10 8 6 3 9 10 11 25 24 22 21 19 21 22 22 22 19 22 20 19 18 20 18 21 19 18 19 13 15 15 18 18 19 18 16 17 14 14 15 14 13 12 12 11 10 9 10 10 11 11 9 9 8 8 7 6 6 6 5 7 7 9 8 9 8 6 6 4 3 6 4 6 6 4 3 5 6 6 4 7 10 9 6 5
11 10 15 14 14 21 6 13 15 13 15 7 7 5 6 4 7 11 15 15 20 23 21 22 20 20 20 22 21 20 20 19 18 19 20 18 16 14 16 14 19 20 22 21 22 20 21 18 17 16 15 14 14 13 14 11 10 10 10 10 11 12 10 9 9 9 9 8 7 6 6 7 8 10 8 9 9 9 8 6 3 2 6 7 7 6 4 5 5 4 6 8 12 11 11 6 6
12 13 10 13 12 16 12 5 9 8 10 11 9 17 12 13 13 16 7 21 14 18 18 17 18 17 16 16 18 18 16 18 20 21 17 15 16 20 20 19 16 17 21 21 21 15 13 13 15 16 14 16 12 12 11 12 10 10 8 10 11 11 10 10 9 9 9 9 8 7 7 7 8 8 10 7 8 9 8 7 5 2 2 7 8 7 5 6 7 6 7 10 9 11 10 6 6
9 13 7 11 7 19 7 9 3 9 8 9 10 16 14 12 15 18 11 19 22 21 20 16 16 16 16 16 18 19 18 20 20 23 23 24 23 25 29 23 22 21 22 17 15 15 12 9 12 12 13 8 10 11 12 10 9 10 9 8 9 10 9 10 10 10 10 9 8 8 7 7 7 8 9 10 7 9 9 6 4 2 5 8 9 7 8 7 8 8 9 11 8 9 8 6 6
9 11 14 9 7 14 11 8 5 13 10 7 9 14 15 14 17 17 16 19 24 22 20 19 19 17 18 16 16 17 20 30 36 36 32 28 21 23 25 25 23 25 19 16 15 13 12 15 12 10 17 17 12 10 11 11 10 10 9 9 9 8 10 10 10 10 9 8 7 8 6 7 7 8 8 8 9 7 8 8 7 5 5 8 8 7 6 8 8 8 7 12 13 8 10 7 5
8 10 8 14 6 11 13 10 10 11 15 5 14 16 7 12 16 16 16 17 25 21 19 18 18 18 17 15 15 19 30 31 34 34 28 28 28 23 23 22 21 21 17 21 19 16 19 20 20 20 17 13 17 8 9 9 11 10 9 9 9 9 10 9 8 8 8 8 7 8 8 8 7 9 9 8 8 8 7 7 6 6 5 8 8 8 6 7 8 9 7 6 9 11 9 9 7
17 5 12 9 10 7 13 13 10 12 13 12 9 19 11 10 9 15 16 12 18 19 19 21 21 19 17 16 16 27 32 28 27 27 24 27 29 30 27 19 17 12 13 18 18 20 21 20 18 15 13 11 14 15 10 12 11 11 9 9 8 9 7 7 8 9 8 8 8 8 7 7 7 8 8 8 7 6 5 7 6 6 6 8 8 8 6 7 7 9 10 7 7 12 8 10 9
13 8 8 13 9 9 14 11 7 11 11 17 8 14 17 20 14 12 18 13 18 23 24 22 25 20 18 20 25 29 29 28 24 22 21 23 24 22 24 26 28 24 16 16 17 17 16 16 15 15 17 14 13 12 13 10 10 8 7 7 7 6 6 6 7 8 8 8 7 6 6 7 6 7 8 9 9 8 7 7 7 4 5 7 8 8 6 7 8 5 11 10 7 6 9 8 11
8 9 10 8 10 14 14 22 18 7 7 12 13 16 21 22 21 15 14 9 14 17 20 23 24 22 19 24 26 25 28 22 18 20 19 20 25 26 22 19 24 26 23 17 14 15 17 17 15 16 16 15 12 13 15 11 10 11 11 5 5 5 5 6 4 7 7 7 5 6 5 5 5 6 7 9 9 8 8 7 7 5 5 8 9 9 6 7 9 9 9 12 10 9 7 6 8
11 12 10 12 11 14 10 15 16 10 10 13 19 17 19 23 24 22 20 8 9 10 15 11 16 20 23 25 29 30 27 25 18 19 19 21 22 20 22 25 23 20 19 19 17 15 17 19 18 18 17 17 18 16 14 14 12 11 7 11 12 9 9 6 7 6 8 6 6 7 6 6 6 6 7 8 9 9 7 7 7 6 5 7 8 8 7 6 8 8 9 8 11 10 6 4 5
15 14 12 17 10 15 14 20 12 4 9 11 19 18 21 27 24 20 20 7 9 10 16 24 19 18 22 30 29 28 28 21 18 19 20 18 19 20 21 25 27 27 19 17 18 19 16 15 17 18 14 13 14 16 15 12 11 13 12 12 7 10 9 9 6 7 8 9 9 8 7 7 6 6 7 7 9 9 8 8 8 7 6 7 6 6 5 6 7 9 9 9 4 8 7 4 7
14 15 15 15 21 14 18 21 9 5 9 22 20 20 23 27 25 21 18 17 16 13 21 27 32 25 26 27 27 25 25 23 20 21 20 22 24 26 23 26 26 29 26 21 17 17 15 16 15 14 15 16 13 13 14 13 9 8 8 10 9 10 5 7 9 9 11 12 10 9 9 8 8 7 8 9 10 8 8 8 8 8 7 7 8 7 7 7 7 8 7 11 9 6 7 2 2
11 13 11 19 14 11 22 11 9 19 13 14 16 25 25 22 18 21 20 16 15 10 18 26 34 34 32 32 32 32 28 29 26 24 25 26 24 23 23 30 27 23 24 19 18 20 18 15 14 15 17 18 19 15 14 8 9 7 4 8 10 12 11 7 8 8 9 10 9 9 7 8 8 9 9 10 9 8 8 8 8 8 7 6 9 10 8 8 7 6 6 5 12 11 7 3 2
12 14 16 17 16 16 17 14 14 14 21 8 10 9 12 12 15 20 15 4 9 4 10 23 20 24 28 24 21 30 32 29 27 24 24 23 23 22 22 24 26 25 23 22 21 20 19 18 17 17 16 16 16 15 12 10 10 6 6 10 11 11 8 10 10 8 7 8 9 9 9 7 7 7 6 8 8 8 7 7 8 7 7 6 7 8 9 10 7 6 7 8 8 13 6 8 3
15 10 16 20 21 19 9 8 11 17 20 12 8 16 19 10 6 15 10 6 6 5 19 17 20 24 26 27 26 18 18 22 29 27 25 26 27 23 21 23 23 22 24 23 20 19 17 17 15 13 13 11 14 13 13 13 13 15 16 19 18 13 13 12 10 12 8 9 10 6 8 8 8 6 5 6 7 7 8 8 8 9 7 7 8 9 8 8 7 7 8 9 6 3 12 8 7
12 18 14 22 23 11 5 10 5 10 13 16 8 8 16 10 5 3 3 5 5 8 18 20 22 23 23 25 24 24 25 21 17 17 19 21 22 24 25 25 24 24 21 18 16 16 16 17 15 15 15 16 15 14 14 14 13 16 18 19 17 18 17 10 9 7 10 7 8 9 8 5 6 8 4 5 6 6 6 6 7 7 8 7 7 10 10 10 10 8 6 7 7 9 8 9 11
18 9 9 13 9 7 6 6 5 15 10 16 6 8 10 6 11 7 4 8 12 17 16 16 19 22 22 23 24 23 25 24 24 21 20 21 24 24 26 24 23 24 20 17 17 16 19 19 16 15 14 15 12 14 15 16 19 15 14 15 16 15 14 13 10 8 7 8 9 8 7 6 5 6 7 5 5 6 6 5 4 5 7 7 7 8 9 9 8 4 5 4 6 7 8 13 10
20 11 11 10 10 5 4 4 9 11 6 21 16 4 7 7 13 6 6 6 12 17 20 17 16 18 23 23 23 21 21 22 23 24 21 23 24 23 22 22 18 18 19 20 19 19 18 16 14 10 12 12 12 12 14 11 12 13 14 15 13 10 13 12 10 9 9 9 10 6 8 6 6 5 7 6 5 6 6 7 5 5 6 7 8 7 5 8 10 10 7 6 7 5 3 5 12
14 10 9 7 3 4 3 6 7 7 7 15 18 5 10 11 11 12 8 4 6 17 16 13 19 26 26 24 18 18 18 18 15 20 22 23 23 23 21 20 22 22 17 15 15 17 17 14 13 10 8 9 11 8 8 7 7 10 13 13 16 14 13 10 10 10 9 9 10 8 8 9 8 6 4 4 4 5 6 7 9 9 9 8 9 8 7 6 6 9 10 7 6 6 3 6 9
6 9 7 9 6 4 4 8 10 6 12 17 15 4 8 8 9 7 4 4 8 19 14 18 15 10 15 20 22 23 22 20 19 17 18 18 16 18 19 23 21 18 16 15 15 15 15 15 13 11 9 6 8 9 8 7 7 8 14 15 17 17 15 14 13 10 10 9 11 8 8 8 9 10 8 5 6 6 7 5 5 5 6 11 11 9 10 10 7 9 9 6 7 8 7 5 5
6 7 7 5 12 7 5 8 6 12 13 13 10 6 8 9 7 11 7 5 20 28 25 26 23 21 22 19 19 20 20 19 17 17 16 15 15 15 14 16 17 16 15 15 14 14 14 14 13 13 10 8 7 7 7 8 10 9 11 14 16 17 17 16 15 14 13 13 10 10 8 9 7 8 6 6 6 7 9 6 5 5 7 8 8 8 8 11 10 8 10 10 8 7 7 8 8
3 6 10 6 12 10 9 5 7 10 15 11 6 8 5 5 8 10 12 7 18 20 32 30 28 23 19 19 20 18 16 16 17 16 16 16 17 19 18 16 15 15 16 15 15 15 15 13 13 15 13 9 9 8 10 10 11 11 14 15 12 12 12 14 13 13 11 13 11 10 9 11 9 9 6 7 5 6 8 9 7 7 7 7 8 8 7 8 9 8 9 8 9 8 10 9 10
2 6 8 7 11 10 8 8 7 5 11 11 4 3 6 7 7 20 19 15 15 21 22 23 27 27 21 17 12 11 12 13 13 13 14 15 17 16 14 16 14 15 14 16 15 15 15 14 14 15 14 10 10 10 11 11 11 11 11 14 14 12 12 12 11 13 9 10 10 11 10 10 9 10 8 8 5 6 6 7 7 5 6 6 8 8 8 7 7 8 7 7 7 8 10 9 8
10 9 15 15 13 14 10 8 12 15 15 10 4 9 9 7 13 19 19 10 21 25 23 16 12 14 16 16 13 12 10 7 11 14 12 15 15 15 16 16 16 16 15 14 13 13 13 15 16 15 12 9 10 10 9 11 12 11 9 11 12 10 13 11 10 9 10 10 8 9 8 8 9 5 8 4 4 7 5 5 6 8 7 7 7 7 9 8 8 8 7 7 7 6 7 7 6
11 9 11 9 17 13 11 13 7 4 5 6 10 7 5 13 5 15 17 13 18 23 26 23 19 13 13 14 14 12 10 10 10 13 15 14 15 16 18 17 17 16 14 14 12 13 14 15 15 14 14 10 10 9 7 11 10 10 10 11 10 10 9 9 8 7 8 9 8 10 8 8 7 6 5 8 5 7 6 5 6 6 6 6 6 7 7 9 9 11 9 8 7 5 9 7 6
9 5 12 21 13 14 7 6 2 8 7 3 4 12 16 8 14 19 18 15 12 12 15 17 17 14 9 11 10 10 11 12 12 14 16 17 16 16 17 18 17 14 13 14 13 13 15 14 13 12 10 9 10 9 9 8 10 11 11 11 10 10 11 11 12 9 8 6 9 9 11 9 8 8 8 7 6 5 6 6 6 5 7 7 7 6 7 7 8 9 10 8 8 6 9 8 8
8 8 15 6 7 12 12 12 5 4 9 11 7 7 8 13 13 14 15 16 14 13 12 10 11 10 11 9 9 10 11 10 11 13 14 14 16 18 17 17 15 14 13 12 12 11 14 14 13 14 12 13 11 11 11 10 11 11 10 11 9 11 11 10 10 10 9 11 9 10 10 11 10 9 9 5 7 6 6 7 7 6 6 7 7 7 8 8 8 8 7 7 5 7 9 6 8
17 17 6 4 10 12 10 11 7 6 7 8 6 4 7 9 6 5 12 12 11 5 4 7 9 11 11 12 14 13 12 11 11 11 14 14 14 15 16 16 13 13 12 12 9 8 10 9 9 11 12 11 11 11 9 9 8 10 9 10 9 10 9 10 9 9 10 12 11 11 10 10 8 7 9 8 7 7 6 6 6 5 6 7 7 8 8 9 9 9 7 8 5 8 10 9 6
3 6 11 6 13 8 7 16 13 15 8 6 6 8 11 9 9 6 12 10 13 9 3 5 7 11 13 11 11 13 12 11 10 10 11 13 13 13 14 15 15 14 11 8 9 5 10 11 11 10 9 7 10 12 12 12 10 11 11 10 8 9 9 11 10 12 12 11 10 10 9 8 9 8 8 8 7 7 6 6 5 7 6 6 8 7 9 9 10 9 9 9 6 9 9 8 6
6 8 9 9 8 7 11 5 7 12 15 10 13 7 7 5 8 5 12 14 10 13 13 6 8 11 11 11 12 13 12 10 9 8 10 12 11 9 10 9 10 9 10 15 12 9 6 7 10 12 17 13 11 13 14 14 12 12 13 11 11 10 9 10 9 10 12 9 8 8 8 8 7 8 8 8 7 7 6 6 6 6 6 7 7 7 7 8 9 8 7 8 6 9 9 6 8
6 11 12 13 10 9 7 15 10 10 14 17 14 11 6 7 9 4 8 15 20 12 8 11 10 12 12 13 12 10 12 11 9 8 9 9 10 9 8 9 10 11 12 15 12 11 11 11 13 16 18 10 8 8 15 14 13 15 12 13 11 9 9 9 10 9 11 9 8 8 7 6 8 6 7 9 8 6 6 6 5 5 5 7 7 7 6 8 9 8 7 7 7 8 8 7 7
Wind_Speed
1 2 2 1 1 1 1 1 1 2 1 5 4 3 6 2 6 9 12 5 6 5 2 5 7 2 5 8 15 9 8 2 4 5 5 1 5 12 13 13 13 12 12 10 9 10 11 14 16 18 18 19 20 19 19 20 21 20 19 17 16 16 16 16 17 16 16 16 16 16 16 17 16 15 15 15 14 15 16 17 16 16 16 16 16 17 16 17 16 15 13 13 14 14 14 13 13
1 1 2 0 1 0 0 1 1 1 2 3 10 1 6 4 2 5 9 6 4 2 2 12 13 17 19 18 16 13 12 8 2 5 5 7 11 9 13 14 15 15 11 10 10 9 10 12 17 17 18 20 19 20 19 20 20 20 19 18 17 16 17 16 16 16 16 15 16 16 16 16 16 16 15 13 11 13 12 14 15 15 15 15 16 16 16 16 16 15 13 11 11 12 12 12 12
2 4 4 2 1 1 0 1 0 1 3 8 6 8 3 6 3 8 9 10 5 6 5 5 7 5 5 3 8 5 2 2 11 8 7 11 14 8 11 11 13 14 13 10 10 10 9 11 16 17 19 19 19 19 19 19 19 19 18 17 16 16 16 17 17 16 16 16 16 17 17 16 16 15 14 11 11 10 12 12 14 14 14 14 14 15 15 15 15 15 13 10 10 10 11 11 11
3 2 1 2 1 1 2 1 2 5 4 7 7 5 6 5 10 12 13 13 5 11 4 2 5 5 5 14 10 12 9 4 2 10 8 6 7 12 12 13 12 11 11 9 10 10 9 13 17 17 18 19 20 20 19 19 20 19 18 17 17 16 16 16 17 16 16 16 16 16 17 17 16 16 15 15 15 15 13 11 11 14 13 13 13 14 14 15 15 15 12 10 9 10 10 10 10
3 2 1 2 2 1 1 3 3 4 8 5 6 4 5 5 9 8 9 9 2 8 3 5 5 4 7 7 1 1 4 6 8 4 7 7 13 12 13 13 12 12 11 11 11 10 11 17 17 17 18 20 19 20 19 20 19 18 18 18 17 17 16 16 16 16 17 17 17 16 17 16 16 16 16 15 15 15 14 14 13 13 14 14 13 13 13 14 14 14 11 10 9 9 9 10 10
3 1 1 1 0 1 1 1 3 6 9 0 4 8 1 4 8 12 9 6 3 9 10 2 6 3 5 3 3 4 11 7 6 5 9 10 15 16 13 12 12 12 11 10 10 9 10 17 17 18 18 20 20 20 19 20 19 18 18 18 18 18 16 15 16 16 16 17 17 17 17 16 16 15 15 15 14 15 15 14 13 13 13 14 13 13 14 14 14 13 10 10 10 9 9 9 8
0 2 1 1 2 0 3 2 6 6 11 4 10 11 10 13 14 12 14 1 2 5 1 10 16 12 9 1 5 4 3 9 8 8 8 13 14 14 13 12 12 12 11 10 9 10 13 17 18 18 18 19 20 19 20 20 19 19 19 18 18 17 17 15 15 15 15 16 17 17 16 16 16 16 15 14 14 14 14 13 13 13 12 11 14 13 13 13 14 12 9 9 10 9 8 7 7
1 1 0 2 1 1 2 3 6 4 5 9 8 11 14 15 14 9 15 4 5 3 5 12 7 10 3 4 4 6 5 3 12 13 17 15 14 13 13 12 13 11 10 9 9 9 15 17 17 17 17 18 18 19 19 19 19 18 18 17 17 16 16 15 14 14 14 15 16 16 16 15 16 16 15 14 14 14 14 13 13 13 13 13 14 14 13 13 14 12 8 8 9 8 7 7 7
1 1 1 2 1 0 2 5 7 4 8 6 10 12 14 13 12 9 11 2 3 4 5 7 6 10 2 10 5 1 7 13 14 17 15 15 14 12 10 12 13 11 10 9 9 9 10 14 15 16 17 17 19 20 19 19 18 18 18 17 16 14 14 14 14 13 14 13 14 15 15 15 15 15 15 14 14 14 14 13 13 13 13 14 15 15 14 13 13 12 9 6 7 7 6 6 7
1 1 1 2 2 3 2 8 3 6 4 5 8 12 11 10 13 10 8 5 8 4 3 4 3 12 12 12 7 3 7 13 15 13 13 15 13 12 11 11 13 14 11 10 9 9 8 14 15 16 17 17 18 18 18 17 17 17 17 16 15 14 13 13 12 12 12 13 13 13 13 13 14 14 14 14 14 13 13 13 13 14 14 14 14 13 13 12 12 11 9 5 5 6 6 6 7
0 0 1 0 1 3 6 7 6 9 9 8 11 15 13 13 16 9 4 5 9 8 7 14 12 14 10 5 3 1 7 12 16 15 14 13 14 13 11 10 12 12 12 11 10 9 9 10 17 17 17 17 16 16 16 15 15 15 15 15 14 14 13 12 12 14 14 13 14 14 12 13 13 14 14 14 14 13 13 13 14 14 14 13 13 13 12 12 11 11 9 6 4 4 5 6 7
1 0 1 2 3 5 5 3 6 8 11 10 13 14 8 14 11 4 2 9 5 14 10 4 7 13 10 7 4 6 7 7 8 11 13 14 13 13 12 9 11 11 12 12 11 9 9 10 10 15 16 15 15 15 15 15 15 15 15 15 14 13 12 11 11 11 12 13 11 11 11 12 13 14 14 14 13 13 13 14 14 14 14 13 13 12 12 11 11 10 8 6 3 4 4 6 6
1 0 0 1 3 2 4 4 7 7 8 11 10 11 5 14 9 4 3 5 7 9 2 3 20 4 8 7 4 5 9 6 8 10 12 13 13 12 11 11 12 12 11 10 10 10 9 8 8 9 13 18 15 15 15 16 15 16 16 15 14 13 12 12 11 12 12 11 10 10 10 11 14 14 14 14 14 14 13 13 13 14 13 12 12 12 11 10 9 9 8 6 3 3 4 5 6
2 4 2 3 0 2 4 6 5 5 9 10 7 6 3 1 3 4 6 9 4 2 1 15 10 15 11 7 5 7 7 6 8 10 11 13 12 12 13 11 12 11 10 10 10 10 9 8 8 9 10 10 10 13 15 15 15 16 16 14 13 12 12 12 11 11 10 11 11 11 12 13 14 13 13 14 14 14 13 12 13 13 13 12 12 12 11 9 8 8 7 6 4 1 4 5 6
5 2 1 2 3 3 2 3 3 3 11 9 8 5 6 3 2 6 12 9 7 4 8 5 14 11 8 12 6 8 9 9 9 12 13 12 13 13 14 12 11 10 9 9 9 10 9 8 8 7 8 8 9 7 8 11 15 15 15 15 14 13 13 13 12 11 11 11 11 12 12 13 13 13 13 14 13 14 14 12 12 12 11 11 11 10 10 9 8 7 6 5 3 1 3 4 5
5 2 1 1 4 3 4 2 1 4 8 5 7 7 4 3 3 4 1 10 5 4 3 4 5 3 12 13 17 15 14 11 11 12 13 14 13 12 13 12 10 9 8 9 8 8 9 9 8 7 8 8 7 7 8 8 14 15 14 14 13 14 13 13 12 11 12 11 12 12 12 10 10 10 14 11 13 13 12 9 12 11 11 10 10 9 9 8 7 6 6 4 3 1 2 5 6
1 2 2 2 8 5 4 2 3 5 7 9 10 8 3 3 5 6 3 7 13 1 4 3 1 4 18 4 14 17 15 12 13 15 14 11 11 10 9 9 9 7 6 7 7 8 9 9 9 7 8 8 8 8 7 8 10 14 12 13 15 14 13 13 12 13 11 10 10 10 8 5 5 5 6 5 10 7 9 12 11 11 10 9 9 9 8 8 7 6 5 4 3 1 2 4 6
2 4 4 5 7 9 3 3 3 4 6 11 14 12 3 3 3 4 5 10 10 8 8 5 13 11 10 11 14 14 14 15 15 17 13 11 9 10 9 9 9 9 7 7 6 8 8 8 9 8 8 9 8 7 6 6 7 9 7 7 7 9 11 12 9 7 9 5 10 7 5 5 5 5 5 7 4 6 8 12 12 10 9 9 8 8 8 7 7 6 5 3 1 1 4 3 3
4 2 4 9 5 8 3 2 8 4 7 11 12 16 2 2 3 2 6 1 9 11 8 8 14 11 14 15 15 14 14 12 13 14 16 14 12 13 11 9 9 9 8 7 7 8 7 8 8 8 8 8 8 7 6 6 6 5 5 6 6 7 8 7 5 7 5 5 4 5 5 5 5 4 4 6 4 8 8 11 11 10 8 7 7 7 7 6 6 5 4 3 2 2 1 1 2
5 4 6 9 8 5 3 5 8 4 8 12 15 12 3 5 2 1 5 4 10 13 8 6 12 14 13 14 14 15 13 12 10 12 12 11 12 13 12 12 10 9 9 8 8 7 8 8 8 8 9 8 8 7 6 6 5 5 5 5 5 5 6 5 5 6 5 5 5 4 5 4 4 5 9 12 9 5 7 11 11 10 8 6 6 4 5 4 6 5 3 4 4 2 1 1 2
2 4 6 7 2 3 9 6 4 7 7 8 13 4 6 7 2 5 7 9 1 5 14 17 15 17 16 15 14 13 14 12 10 10 10 10 9 9 10 11 11 10 9 8 8 8 8 9 9 9 9 8 9 8 7 6 5 5 5 5 4 5 5 5 5 6 5 5 4 4 5 4 4 3 3 5 3 4 4 4 4 3 2 2 4 3 3 3 3 3 4 4 3 2 2 1 4
2 5 7 11 9 7 12 10 11 10 12 7 8 9 3 4 5 8 13 11 8 10 10 17 21 20 20 18 15 13 13 12 11 11 11 12 14 12 10 9 7 7 8 9 9 9 8 9 9 8 8 8 9 8 8 7 7 6 6 5 5 5 5 5 5 5 5 5 4 5 5 6 5 5 5 4 3 4 5 4 3 3 2 2 2 2 2 3 3 3 4 4 3 3 3 3 3
5 6 7 8 7 7 6 7 6 6 6 8 8 7 0 2 4 4 6 8 8 5 11 15 19 19 18 17 16 14 13 13 13 13 14 12 12 12 12 11 11 10 9 9 8 8 8 9 9 9 9 8 9 8 7 6 6 6 5 5 6 5 5 5 5 5 4 4 4 5 6 5 5 5 5 4 4 4 4 4 3 3 3 3 1 3 3 2 3 4 4 4 3 3 3 3 3
6 8 6 10 8 10 11 12 12 10 8 6 5 5 1 2 3 1 2 2 11 10 9 13 14 15 17 17 14 14 13 14 15 15 11 13 14 13 13 13 10 9 10 10 9 9 8 10 10 10 9 9 8 8 8 6 5 6 6 6 5 6 6 5 5 5 4 4 3 3 4 5 6 5 5 5 5 4 4 3 3 4 2 2 2 2 3 2 2 3 3 4 3 2 4 3 2
7 8 9 11 10 8 9 9 9 8 7 8 8 7 9 4 2 1 1 6 9 10 10 13 15 15 14 16 16 14 12 10 12 9 8 8 8 10 10 8 10 10 12 10 9 9 7 4 8 9 9 9 7 7 7 6 5 6 5 6 5 6 5 5 5 5 5 4 3 4 4 5 5 5 5 4 4 4 3 3 4 3 2 2 2 1 2 3 2 2 4 4 3 3 4 3 3
5 11 9 9 9 10 10 8 8 9 3 6 4 5 9 4 6 1 9 6 10 12 12 15 15 16 15 16 16 16 15 16 12 10 10 8 9 11 9 8 9 8 9 11 9 6 8 10 7 8 7 7 7 6 6 6 6 6 6 6 5 5 5 5 4 5 5 5 4 3 4 5 5 5 5 4 5 4 3 3 3 2 2 2 2 2 2 2 2 3 3 3 3 4 5 3 3
3 5 5 8 9 7 6 9 12 12 4 4 4 4 3 4 1 2 2 6 11 13 13 13 16 15 14 14 13 13 16 17 15 10 6 7 9 10 7 6 7 7 8 9 10 8 9 9 8 8 7 7 8 8 7 6 5 5 6 6 5 6 5 6 5 4 4 4 4 4 3 3 4 4 5 5 4 4 4 4 3 3 3 3 3 3 2 3 2 3 3 3 4 5 4 3 3
5 6 8 10 10 9 7 6 9 4 4 7 8 7 6 3 1 4 6 6 15 15 13 14 13 14 14 15 14 13 13 12 11 11 13 13 11 8 8 7 7 10 8 7 8 11 10 10 10 9 9 9 8 8 7 6 5 5 6 6 5 6 6 5 5 5 5 4 4 4 4 3 4 4 5 5 5 5 4 4 2 2 4 3 3 3 2 2 3 3 2 2 5 4 4 4 2
5 5 6 9 9 8 4 5 7 4 4 4 5 3 3 1 4 7 10 9 13 16 14 14 14 13 13 14 13 12 12 12 11 11 12 7 7 7 9 9 9 9 8 10 13 11 11 11 9 9 9 8 8 8 7 6 5 5 6 6 6 6 5 5 5 5 5 5 4 4 4 4 5 6 5 5 5 5 4 4 2 1 4 4 3 3 2 3 3 2 4 5 5 4 4 4 3
6 5 2 7 6 8 8 3 5 6 3 7 5 6 7 6 8 9 5 12 9 13 12 11 11 10 10 10 10 11 10 11 12 6 6 8 9 12 13 12 10 8 7 9 10 8 8 7 7 6 6 7 7 6 6 6 5 5 5 6 6 6 6 6 5 5 5 5 5 4 5 5 5 5 5 4 5 4 4 4 3 1 2 4 4 3 3 4 4 4 5 6 5 4 4 2 3
2 6 2 4 4 7 3 2 1 2 3 6 5 6 8 7 10 11 6 13 15 13 13 10 10 10 10 10 10 11 8 4 11 15 15 15 12 12 15 14 14 12 11 8 9 9 6 4 4 6 4 4 6 6 7 6 5 6 5 5 5 6 5 5 5 5 5 5 5 5 4 4 4 5 5 6 4 5 5 4 3 2 3 4 4 2 3 4 5 5 5 6 5 4 3 2 3
2 4 6 4 4 7 7 5 2 5 3 2 6 6 8 8 11 12 6 12 13 14 13 12 11 10 11 10 8 5 12 19 21 23 18 14 12 12 14 15 15 16 13 9 5 6 7 7 5 6 10 8 5 6 6 6 6 5 5 5 5 5 5 5 5 5 5 4 5 5 4 4 4 5 5 5 5 4 5 5 4 3 3 4 4 3 3 5 5 4 4 6 6 4 4 3 2
2 5 4 7 4 6 6 6 5 8 5 1 7 6 3 6 11 10 7 12 16 13 12 12 12 11 10 9 7 12 16 17 18 17 16 16 15 14 9 5 4 4 5 13 13 10 10 13 13 13 11 8 7 4 2 5 6 6 5 5 5 5 5 5 4 4 4 5 4 5 5 5 4 5 6 5 5 5 4 4 4 4 3 5 5 4 4 5 5 4 4 3 5 5 4 4 3
6 0 4 3 5 4 5 8 7 5 5 5 3 5 6 6 5 9 11 9 13 11 12 12 11 10 10 9 11 12 12 15 14 13 13 13 14 17 16 12 10 8 7 7 11 12 13 11 10 9 8 7 6 8 5 4 6 6 5 5 4 5 4 4 5 5 5 5 5 5 4 4 4 5 5 4 4 4 3 4 4 4 4 5 4 3 4 5 4 5 5 4 3 6 4 5 4
5 2 3 6 4 5 7 3 4 1 4 6 5 5 9 12 9 7 10 8 13 15 11 14 13 10 10 13 14 14 14 16 12 10 10 14 16 15 14 16 16 16 11 9 9 10 9 10 9 10 10 9 8 7 8 3 5 4 3 4 4 3 3 3 4 5 5 5 4 3 3 2 3 4 5 5 5 4 4 4 4 3 3 4 4 3 4 5 5 3 6 5 3 2 4 3 5
3 3 4 4 5 7 6 8 7 3 4 5 7 7 10 15 14 9 9 7 6 12 13 12 11 10 12 15 13 15 13 13 10 11 13 12 15 16 12 11 10 14 14 11 9 9 10 9 9 9 10 9 8 8 9 6 6 6 5 3 3 3 2 3 3 4 4 4 3 3 3 3 3 3 4 5 5 4 4 4 4 3 3 5 5 4 4 5 6 6 6 8 6 3 3 2 3
7 6 5 6 5 8 5 8 7 3 2 7 10 9 12 14 15 15 12 5 5 7 10 7 7 11 14 13 15 16 15 13 11 12 12 14 13 11 11 13 11 11 13 12 11 10 11 11 9 11 10 10 10 8 7 7 6 5 3 6 6 5 5 3 4 3 4 4 4 4 3 4 3 3 3 4 4 4 4 4 4 4 3 4 5 4 4 4 5 5 5 4 6 5 2 1 1
7 7 7 10 6 9 7 11 6 1 3 5 9 11 13 17 16 13 11 3 6 7 11 15 13 10 13 16 17 18 13 9 12 11 11 10 11 13 12 11 15 17 12 11 12 11 10 9 10 8 7 7 8 9 8 6 5 6 6 6 3 5 5 5 3 4 4 3 3 4 4 4 4 4 4 4 3 4 5 5 5 4 4 4 3 3 3 4 5 5 5 4 2 5 2 2 3
6 7 8 7 10 6 12 12 3 2 3 8 10 11 13 18 16 13 12 10 7 7 14 17 21 17 15 14 17 15 12 12 9 12 11 11 14 17 13 12 15 19 17 14 11 11 10 9 7 6 6 7 7 8 8 7 4 4 4 3 5 3 2 3 4 3 5 5 4 5 5 5 5 4 5 5 4 4 4 5 4 5 4 4 5 4 4 4 4 5 5 6 5 2 3 0 0
5 6 4 9 7 5 9 4 4 7 2 5 6 9 13 14 12 11 12 9 7 5 12 17 20 21 21 19 19 17 17 17 16 15 15 15 14 14 12 12 12 13 14 12 11 12 10 8 8 8 7 8 8 7 7 5 6 4 3 5 5 5 3 2 4 4 6 6 4 4 4 5 5 5 6 6 4 4 5 5 5 4 4 4 5 5 4 4 4 4 4 4 7 6 2 1 1
5 7 8 8 9 9 9 6 6 6 10 2 6 3 4 7 8 6 9 1 4 0 7 9 7 15 17 15 13 18 21 19 17 15 16 15 14 14 13 12 13 14 13 13 13 12 9 11 10 10 10 9 9 9 7 6 6 4 3 4 5 5 4 4 5 4 4 4 5 3 4 4 4 4 4 5 5 4 3 4 4 4 4 4 4 5 5 5 4 4 4 5 5 7 4 3 1
6 6 10 11 13 12 6 5 5 6 8 5 4 2 4 5 3 9 4 2 3 1 12 11 13 13 16 18 17 12 12 14 18 17 18 19 17 13 11 12 13 11 12 12 12 11 11 10 10 8 8 7 8 8 9 8 7 7 8 9 8 6 6 6 5 6 4 5 6 3 3 3 3 3 3 4 4 4 4 3 3 4 4 4 5 5 4 3 4 4 5 5 4 3 7 5 3
5 7 9 14 16 8 3 5 1 3 3 7 4 2 5 4 1 1 1 3 4 4 11 13 14 14 14 15 15 15 15 13 11 11 11 14 14 13 13 14 14 14 11 9 9 9 10 10 9 8 8 7 6 8 9 8 7 7 10 11 9 9 8 4 4 3 5 4 5 6 5 3 4 4 3 3 4 3 3 3 3 3 3 3 4 6 6 6 5 4 3 4 4 5 4 6 6
5 5 7 9 6 5 4 3 2 6 3 7 2 3 3 2 2 2 1 6 8 9 9 11 11 14 14 15 15 15 15 15 14 14 13 11 15 15 16 14 13 13 11 8 8 8 9 9 8 6 5 5 5 6 8 9 9 8 7 8 8 8 8 7 5 4 3 5 5 5 4 3 3 4 4 3 4 3 3 3 2 3 3 3 3 5 5 5 5 2 3 2 3 4 5 7 6
7 8 8 7 7 3 3 1 3 3 3 10 8 0 0 2 5 1 3 2 7 8 11 11 11 11 13 14 14 14 14 14 14 13 13 14 16 15 14 13 11 11 11 11 10 9 8 7 7 5 5 4 6 7 7 7 7 7 7 8 7 5 7 6 4 3 4 4 5 3 4 3 2 2 3 4 3 3 3 3 3 3 3 3 3 4 3 5 6 6 4 4 4 3 2 3 6
8 6 6 4 1 2 2 2 2 2 1 7 10 0 2 3 5 7 3 2 4 6 5 7 10 16 15 13 12 12 11 11 9 11 14 15 15 14 12 13 14 14 10 9 9 9 9 8 7 7 5 4 4 5 5 4 4 5 7 7 9 7 7 5 4 4 4 4 5 4 4 3 3 2 1 2 3 2 3 3 4 4 4 3 3 3 3 4 4 5 6 5 4 4 2 3 5
2 6 4 3 1 1 1 1 1 2 3 8 11 2 3 1 4 3 2 1 4 7 6 8 9 4 5 9 13 13 13 12 11 10 9 9 7 7 8 12 11 11 9 9 9 9 9 9 8 7 5 4 4 5 5 4 5 5 7 8 10 10 9 8 7 5 4 4 5 4 4 5 4 5 4 2 3 4 3 2 3 3 4 5 5 4 4 5 5 5 5 4 4 5 4 3 3
4 1 3 1 6 4 0 2 3 3 4 7 5 3 4 3 2 4 4 4 11 16 14 16 14 13 12 8 8 10 11 11 10 9 8 8 8 7 5 8 8 10 9 9 8 9 9 8 8 8 6 5 4 4 4 5 6 5 7 8 10 10 10 8 9 8 7 7 5 4 2 5 4 5 4 4 4 4 5 4 3 4 4 5 5 5 5 5 5 5 5 5 5 4 4 5 5
1 3 5 2 3 3 1 1 1 3 5 5 2 6 2 1 3 5 8 5 9 11 17 17 17 15 11 8 8 7 7 8 9 9 8 8 9 10 9 8 7 8 9 10 10 9 9 8 8 10 8 6 6 4 5 6 6 7 8 9 8 7 7 8 8 7 6 7 6 5 4 5 5 5 3 4 4 4 5 6 4 5 4 3 4 5 4 4 5 5 5 5 4 5 5 5 6
1 1 3 2 2 2 2 2 1 1 6 7 2 1 1 2 1 12 13 10 2 9 11 14 15 15 13 11 8 6 5 6 7 7 8 9 9 9 8 9 9 8 8 10 10 9 9 8 9 10 9 7 6 5 6 6 7 7 7 9 8 7 7 8 7 8 5 6 6 6 5 5 5 4 4 4 3 4 4 4 4 4 4 4 4 4 4 4 4 4 4 4 4 3 4 4 4
4 5 6 6 5 3 2 1 2 5 8 4 3 2 1 2 4 9 11 5 9 9 12 10 7 6 8 9 8 7 6 4 4 6 7 9 9 10 10 10 9 9 9 7 7 7 8 9 9 9 7 6 6 6 6 7 8 7 6 7 7 6 7 7 6 6 6 6 5 5 4 5 5 3 4 3 3 4 4 4 4 5 4 4 4 4 3 3 4 5 4 4 4 3 3 3 3
3 3 6 3 7 6 4 4 3 2 1 1 4 2 0 5 2 7 7 8 6 7 14 14 13 9 7 6 7 7 6 6 5 7 8 9 9 10 10 10 10 9 8 6 6 5 5 6 7 8 8 7 7 6 5 7 7 7 6 7 7 6 5 5 5 5 4 5 5 5 4 4 3 3 2 4 3 4 4 4 4 4 4 4 4 4 4 4 4 5 4 4 4 3 5 4 4
3 2 2 9 7 8 3 2 1 4 3 1 0 3 2 1 6 12 9 10 6 3 4 6 10 9 6 5 5 6 6 6 5 6 8 10 10 9 9 10 9 7 7 7 6 6 7 7 7 7 6 6 7 6 6 5 6 6 6 7 6 5 6 6 6 5 5 4 4 4 5 4 4 4 4 3 4 3 3 4 4 4 4 4 4 4 4 4 4 5 5 4 4 2 5 5 4
2 0 7 2 3 5 4 3 1 1 3 2 2 3 4 4 1 6 9 9 9 4 5 4 4 5 7 6 6 6 6 6 6 6 7 7 8 9 9 9 8 8 8 7 5 5 6 7 8 9 7 8 6 6 6 5 6 7 6 6 5 5 5 5 5 5 4 5 4 4 4 5 4 4 5 3 4 4 4 4 5 4 4 4 4 4 5 5 5 5 4 4 3 4 5 3 3
9 8 4 1 2 5 3 4 0 0 0 1 2 1 2 2 2 1 6 2 8 5 2 3 5 7 7 8 9 8 6 6 5 8 8 7 8 8 9 9 7 6 7 5 3 4 6 5 6 7 8 7 7 7 6 5 5 6 5 6 6 5 5 5 4 5 5 6 6 5 5 4 3 4 5 4 4 4 4 4 4 4 4 4 4 5 5 5 5 6 4 5 3 5 6 5 3
1 3 1 3 4 3 2 4 4 5 2 3 1 3 2 1 2 4 5 5 3 6 2 3 5 7 8 6 6 7 7 5 5 6 6 7 8 8 8 8 7 6 4 3 3 2 5 5 7 6 6 5 7 8 8 8 6 6 6 6 5 5 5 6 5 7 7 6 6 6 5 4 4 3 4 4 4 4 4 4 3 4 4 4 5 4 5 5 5 5 5 6 4 6 6 5 3
2 2 3 1 1 3 4 0 2 4 5 4 4 0 1 2 3 1 5 4 6 3 8 4 6 7 7 6 6 6 7 6 5 5 6 7 7 6 6 5 5 5 5 7 5 2 1 4 6 7 11 9 8 8 8 7 6 6 8 7 7 6 6 6 5 6 7 6 5 5 5 4 4 4 4 4 4 4 4 4 4 4 4 4 5 4 4 4 5 5 4 5 4 6 6 4 4
2 4 3 5 5 3 4 6 4 3 5 4 5 3 2 3 2 1 3 2 8 9 3 8 7 8 7 7 7 6 7 7 6 5 5 5 6 6 5 5 5 6 8 9 7 7 6 7 7 8 8 4 5 5 3 7 5 7 7 8 7 6 6 6 7 5 6 5 5 5 5 4 5 4 4 4 4 3 3 4 4 3 4 4 4 4 4 4 5 5 4 4 4 5 5 4 4
Wind_Direction
47 29 44 40 51 334 57 24 109 299 80 251 264 229 249 212 253 296 276 313 315 355 312 52 41 37 130 134 118 90 17 142 211 133 204 169 114 116 119 123 127 125 130 133 135 134 135 134 131 128 128 128 129 129 127 125 124 122 121 119 117 114 112 111 110 110 109 109 108 108 107 107 108 106 103 105 106 109 113 113 110 106 105 106 105 102 99 97 97 95 92 92 92 90 87 82 82
87 41 16 246 287 63 317 137 100 2 44 334 243 95 251 252 255 240 262 247 215 130 314 90 85 86 99 114 125 102 40 16 7 111 78 106 106 105 124 133 135 131 132 134 132 130 134 135 132 131 129 130 130 130 129 127 125 124 121 119 117 114 112 111 110 110 112 112 111 109 107 107 108 108 106 107 105 107 107 107 106 106 106 106 107 106 103 99 98 95 94 92 91 90 83 82 77
44 43 9 49 12 109 326 51 205 159 112 241 255 209 336 315 248 257 243 243 185 143 235 81 93 67 103 146 43 43 153 32 92 86 100 129 109 130 127 126 127 126 129 130 131 132 134 138 135 133 131 131 133 133 131 129 126 125 123 120 119 115 113 113 113 113 114 115 114 111 107 106 106 104 105 98 95 105 112 108 106 108 109 110 110 108 103 99 96 95 95 87 79 76 73 69 66
76 73 103 34 350 14 72 37 109 136 175 239 311 252 235 250 266 258 255 244 217 160 220 12 44 322 107 67 92 82 109 142 47 125 127 146 130 134 132 126 124 121 123 130 132 132 135 140 138 135 134 134 136 136 133 130 128 126 123 122 118 116 116 115 116 116 116 115 114 113 111 108 103 102 100 93 86 81 79 86 105 112 114 115 111 106 101 98 96 94 94 92 80 72 67 63 59
74 2 107 56 108 355 100 191 174 124 220 179 232 266 241 218 254 279 259 248 130 146 171 143 84 354 58 96 156 107 147 116 124 101 108 102 127 131 130 126 123 123 127 133 133 134 142 142 141 138 137 138 139 138 134 131 129 127 124 121 120 119 120 118 118 117 116 115 114 113 114 107 104 102 99 94 88 88 88 87 86 90 90 86 85 87 94 97 98 97 95 94 87 76 66 62 58
68 57 334 98 116 213 24 333 275 220 242 130 280 258 207 284 299 290 304 10 60 153 152 127 131 155 42 3 357 93 138 141 132 74 120 135 133 131 131 128 125 125 129 133 135 137 144 144 143 142 141 140 141 138 134 133 131 127 125 123 123 123 122 122 120 118 117 117 116 116 117 110 107 104 102 99 96 94 92 92 90 91 98 99 99 103 104 104 101 98 95 90 85 80 73 65 60
67 50 22 28 331 97 157 201 252 243 258 197 248 278 303 296 282 289 286 4 42 64 140 117 117 112 86 106 43 360 312 123 117 143 131 134 132 133 134 126 121 123 131 134 137 138 145 146 147 146 144 143 140 137 134 132 130 128 125 125 124 124 122 122 122 121 120 117 116 117 117 112 110 107 107 108 104 101 97 95 95 91 87 95 105 104 105 107 106 101 97 93 88 84 79 68 52
67 100 258 101 258 74 258 229 250 211 272 190 249 268 270 268 275 294 285 210 227 130 128 138 129 95 24 337 115 311 25 53 113 114 123 131 134 132 127 126 121 126 131 134 134 140 146 147 147 145 141 139 137 135 133 132 130 127 125 124 124 123 124 124 123 123 122 120 120 119 117 115 113 112 111 112 112 110 108 105 100 95 95 96 106 107 107 109 105 104 100 96 94 85 79 62 50
12 92 308 71 309 334 307 244 252 240 267 258 259 253 266 274 283 273 270 204 40 58 137 162 171 84 180 87 77 358 72 106 111 123 127 130 134 132 128 129 127 130 131 130 131 138 140 146 143 141 138 137 137 135 133 132 129 126 125 125 123 123 125 127 126 123 122 121 121 120 120 116 115 113 112 112 114 113 110 107 102 97 95 97 102 107 111 112 109 107 100 88 92 90 76 61 46
26 97 257 159 142 262 278 274 253 243 254 261 258 262 257 267 270 237 226 92 134 104 339 10 45 113 132 107 114 75 113 119 120 119 129 131 128 124 124 125 127 129 130 128 130 132 140 141 140 139 139 138 137 136 134 132 130 127 124 122 122 123 126 126 124 120 117 119 121 123 123 120 116 115 114 111 109 108 107 106 103 97 94 97 103 108 112 111 110 106 99 75 65 68 59 48 41
349 338 182 44 357 244 245 267 257 296 278 282 268 253 246 246 256 247 206 125 144 130 126 94 71 117 113 103 57 342 116 122 126 137 140 132 124 124 120 122 125 129 129 129 132 136 141 142 143 142 140 138 135 131 129 128 126 122 119 119 119 120 125 125 123 121 120 122 125 128 127 124 120 116 113 109 104 103 103 101 103 101 100 102 107 110 112 110 106 102 95 80 28 31 46 42 35
24 230 85 143 212 192 243 223 272 278 284 277 273 263 229 222 230 231 167 106 150 145 161 161 148 119 80 119 117 132 115 107 117 135 138 127 123 124 123 123 121 121 125 132 136 138 139 142 140 140 133 130 127 126 125 124 122 119 117 117 118 122 123 120 117 117 119 121 122 124 123 121 117 111 108 105 102 100 100 103 104 104 107 110 111 112 106 102 98 97 99 95 48 355 21 28 26
159 221 61 98 229 173 252 281 269 291 297 282 273 294 273 199 190 194 197 117 157 149 207 173 137 110 127 138 122 124 121 131 124 132 129 127 127 124 120 121 121 123 129 134 135 134 133 128 133 131 132 127 123 123 123 124 121 119 118 119 123 126 123 117 114 115 117 119 121 118 113 113 114 110 109 109 106 104 104 103 103 102 104 105 104 104 102 104 107 105 107 107 90 339 355 12 12
166 183 132 251 297 249 273 266 277 294 284 275 276 271 318 116 211 164 85 52 26 127 123 131 114 107 99 112 142 147 148 151 125 124 124 122 123 122 122 122 123 126 130 133 133 131 127 127 125 129 128 121 125 123 125 122 119 120 121 121 123 123 119 115 112 112 114 115 113 110 111 113 113 111 109 107 107 108 109 111 109 108 107 107 107 106 106 108 110 113 112 114 111 336 340 4 2
206 204 134 189 287 324 222 249 248 271 278 287 280 337 319 306 91 90 112 101 40 70 97 89 140 104 185 161 178 172 163 155 129 121 120 120 120 119 119 120 121 125 129 130 130 129 127 123 123 118 115 117 117 119 121 119 118 121 122 125 126 124 118 117 118 119 119 116 114 113 112 113 113 111 104 104 107 110 112 111 111 109 108 109 110 109 108 111 113 116 118 116 116 65 330 352 3
192 152 178 197 264 232 267 230 265 271 269 315 286 329 333 319 23 92 267 128 138 128 158 164 267 157 168 185 166 158 159 142 128 121 120 119 117 115 118 121 122 126 128 130 128 122 125 123 119 116 115 117 118 118 118 118 123 124 126 129 127 121 120 125 125 124 124 120 118 117 116 115 113 110 110 110 113 112 115 116 110 107 107 106 106 106 105 108 112 111 106 103 104 73 316 352 354
221 181 276 238 273 237 254 179 220 234 275 289 304 327 5 28 55 46 338 103 116 101 84 15 41 111 156 160 140 142 145 137 127 124 121 123 124 122 121 120 123 122 128 129 126 126 125 125 120 118 122 122 121 117 115 120 127 126 131 129 124 121 128 132 126 124 123 121 120 113 103 98 97 99 99 106 111 113 124 115 111 108 106 107 105 104 105 104 104 100 102 94 80 8 350 357 355
178 206 199 249 233 256 197 221 262 270 292 309 326 306 345 71 82 136 50 46 86 78 69 59 57 68 100 99 120 134 138 138 138 133 136 134 134 130 129 131 134 140 138 133 126 129 129 125 126 126 126 125 121 116 119 124 126 132 133 125 119 128 135 131 124 125 123 112 118 112 107 113 105 105 115 113 112 133 122 117 112 110 109 107 105 103 100 97 99 102 103 102 78 39 8 33 1
186 214 173 232 215 234 102 223 256 294 301 303 295 297 197 19 169 205 91 61 96 73 43 65 84 81 97 115 132 136 141 144 144 140 144 144 141 138 137 138 137 136 139 136 135 136 131 130 130 128 126 123 116 115 119 122 131 137 130 113 119 133 131 112 116 115 95 100 104 114 115 114 109 109 108 122 148 130 120 115 114 114 116 115 108 101 94 89 85 82 79 86 72 16 41 339 21
215 181 222 236 235 269 271 257 281 321 284 292 298 303 13 339 61 219 110 130 108 116 114 56 104 123 126 133 139 140 145 147 148 144 141 139 138 139 142 144 146 149 144 146 140 135 134 137 133 129 125 126 120 122 125 133 143 138 117 102 121 113 98 104 107 105 95 98 102 105 117 115 113 119 147 141 134 118 115 117 117 120 120 118 106 83 77 66 62 42 33 63 39 18 7 47 65
262 167 221 241 235 278 266 260 267 271 277 283 294 296 357 336 20 119 125 88 24 163 155 150 156 149 145 144 144 147 146 148 147 141 138 140 138 140 145 150 153 148 144 135 135 138 142 139 132 130 130 131 129 135 139 146 143 125 109 120 119 103 103 103 99 95 103 103 107 112 112 100 95 86 91 92 101 111 97 89 90 90 98 88 89 85 74 54 72 63 58 61 46 34 27 40 115
310 210 230 247 261 260 264 263 257 264 271 287 289 316 300 295 97 131 149 149 198 189 197 157 156 150 148 151 151 146 146 141 142 145 154 156 150 145 141 133 127 125 137 139 140 139 142 136 133 131 131 139 141 146 148 149 145 134 129 138 112 102 108 105 99 102 112 117 119 115 103 100 100 105 97 109 109 106 100 94 97 106 100 119 88 94 76 85 86 94 85 71 44 32 16 43 80
248 274 267 258 246 248 266 272 262 250 277 281 293 277 195 19 324 165 206 183 199 203 167 157 153 154 149 144 145 147 146 142 147 163 170 155 150 151 147 146 148 151 151 138 136 138 138 132 130 134 141 147 146 148 147 145 149 136 136 134 126 118 115 115 112 117 127 132 129 127 118 115 112 108 114 127 115 107 108 110 115 120 122 133 140 106 88 86 86 80 78 73 60 44 56 89 88
211 254 257 264 250 242 254 257 260 264 262 263 242 275 133 316 9 316 51 192 162 168 155 142 139 140 141 141 147 144 144 150 165 174 163 162 160 152 151 155 157 142 141 139 136 138 143 139 141 146 152 149 148 151 145 144 143 136 144 134 121 133 126 127 135 140 138 135 133 121 117 124 127 127 134 126 123 113 125 138 130 112 118 133 148 136 111 78 67 72 83 74 66 49 95 113 106
232 253 256 265 268 258 252 243 248 253 246 252 274 274 269 147 259 42 163 144 141 137 129 133 140 141 146 143 145 144 142 159 172 158 163 164 148 141 149 143 144 147 143 134 131 130 100 108 156 153 149 145 146 146 138 143 139 140 126 124 138 137 135 147 150 145 143 148 140 138 132 128 128 131 134 132 119 118 131 132 131 139 132 163 128 85 108 111 80 85 87 84 81 94 119 126 100
226 236 250 257 258 259 254 257 253 254 232 245 265 280 299 256 245 76 170 148 136 135 137 141 145 150 153 152 149 151 158 172 168 166 172 159 147 143 155 138 135 138 126 108 98 86 129 174 175 155 144 141 144 137 144 151 150 136 120 135 147 135 147 148 145 145 153 147 151 153 146 145 145 145 135 131 122 131 139 128 115 142 155 174 118 111 112 111 123 98 80 89 93 118 132 134 109
240 276 255 253 264 276 274 258 260 259 258 175 207 244 270 297 12 310 266 151 132 138 143 148 149 154 158 152 154 158 165 172 170 163 139 151 156 153 144 111 86 90 98 94 119 140 165 167 171 156 138 151 156 149 156 155 146 132 132 142 137 140 144 146 142 142 148 156 158 157 156 149 140 138 136 139 135 133 124 122 139 159 163 171 135 131 137 139 126 93 121 120 106 107 100 88 97
279 262 287 282 277 271 274 279 265 284 275 201 214 239 223 283 98 221 170 183 148 147 155 158 157 160 159 157 157 170 174 173 157 165 164 162 166 151 136 121 96 96 100 123 119 168 166 174 174 163 154 162 155 152 153 149 148 143 145 138 137 139 145 146 145 149 152 160 167 168 163 157 137 143 142 147 140 134 138 143 169 145 163 156 141 138 137 133 90 120 123 105 87 98 97 86 82
275 303 301 293 297 297 279 261 264 231 254 220 174 234 308 326 217 232 171 171 160 154 160 166 168 168 164 162 161 169 175 171 167 174 176 141 110 101 91 77 86 97 118 127 161 174 168 174 172 160 158 158 155 159 154 145 146 148 147 143 138 145 152 150 150 154 156 169 173 169 166 155 148 152 152 144 140 141 149 148 146 153 138 138 140 143 129 93 84 63 58 86 92 91 93 88 89
336 323 273 302 313 293 270 237 252 253 243 204 130 260 256 254 241 251 175 163 169 152 160 170 172 164 159 163 164 169 175 171 180 160 89 75 78 87 89 99 113 116 127 179 164 164 164 166 165 147 147 157 159 156 147 144 153 144 146 144 144 149 157 157 155 152 160 169 169 168 160 159 151 146 142 140 137 142 149 147 134 102 122 131 136 138 129 105 87 84 92 94 96 104 101 101 96
270 279 336 240 315 264 281 253 289 297 230 182 155 234 264 264 268 258 170 175 162 168 172 179 165 165 159 162 170 178 162 78 62 64 79 85 88 98 103 110 120 134 173 175 176 159 151 135 119 131 123 180 157 158 152 145 147 145 149 145 146 151 158 157 155 156 162 166 156 163 160 153 145 142 146 145 154 148 139 134 116 121 114 131 133 169 133 102 99 109 111 94 84 85 85 57 67
282 2 292 310 212 285 291 279 243 251 295 166 160 236 232 241 248 253 196 182 172 175 179 174 172 166 161 161 166 114 80 92 96 96 96 99 104 114 131 144 155 158 157 148 131 133 94 53 106 145 174 179 149 150 152 143 143 145 150 150 146 152 153 155 156 164 163 156 151 154 165 154 139 144 149 152 145 138 142 145 139 136 120 129 135 154 121 114 106 110 109 120 112 98 105 77 58
323 182 260 275 292 278 325 277 224 219 237 262 183 230 299 286 253 255 244 167 182 182 179 177 177 165 154 150 107 103 107 109 110 122 140 144 142 134 110 127 101 77 123 143 154 145 136 151 164 164 169 158 144 91 97 133 143 155 157 153 150 148 152 151 154 155 155 161 159 161 166 161 145 143 152 157 136 139 143 132 135 128 126 133 141 156 133 120 116 118 103 84 118 131 118 112 74
277 326 216 214 244 285 271 292 295 252 195 264 239 226 233 239 257 233 242 162 186 184 178 178 178 169 152 116 98 114 117 112 124 133 134 136 138 142 145 136 129 125 144 167 153 152 160 162 159 155 144 149 141 142 140 162 155 147 148 153 146 146 148 150 157 154 162 172 172 173 167 157 142 133 138 135 123 131 127 124 123 133 116 124 139 150 141 116 111 126 103 72 98 126 129 128 119
227 266 299 307 276 233 248 291 275 308 261 231 258 243 249 252 250 250 231 212 161 188 184 181 183 160 129 100 116 117 108 115 132 141 143 135 128 130 140 156 151 142 152 170 165 158 154 159 155 149 149 146 151 141 130 177 133 118 114 125 126 132 145 172 157 157 173 169 179 164 149 143 138 131 130 130 126 125 114 122 121 120 107 116 128 130 123 112 110 94 116 96 60 71 134 142 129
184 213 210 219 269 283 268 262 262 230 287 274 252 235 245 247 250 249 255 244 196 184 188 182 174 139 112 115 132 124 122 125 139 142 142 140 142 149 148 149 154 141 143 162 168 160 159 163 157 151 154 145 143 138 141 150 141 142 135 101 124 166 168 175 172 175 168 172 165 156 152 144 142 133 129 131 131 130 127 134 125 119 120 120 132 136 135 131 128 115 113 116 107 69 42 83 107
284 295 284 263 257 273 275 269 270 239 248 241 245 242 242 247 239 237 237 223 227 128 161 159 158 138 119 129 131 131 133 142 148 141 146 148 139 132 140 141 142 131 140 156 161 165 165 168 159 165 162 151 145 145 149 151 147 133 128 166 179 171 174 179 177 179 180 173 168 157 145 135 144 138 130 128 134 134 128 133 126 120 120 117 138 157 158 132 118 124 122 113 122 110 45 36 84
243 260 275 279 272 275 275 276 287 325 186 267 243 243 241 243 239 235 238 181 214 167 156 148 147 139 130 139 137 132 132 128 136 131 133 132 131 142 148 149 143 141 156 159 164 165 168 166 162 157 149 153 150 153 153 152 154 165 160 177 157 152 155 164 184 187 176 166 155 146 140 139 144 143 130 125 136 138 142 143 136 137 125 118 129 143 131 127 120 123 130 93 53 121 128 181 193
247 225 254 277 267 271 276 269 336 236 218 254 258 246 242 241 237 231 229 215 217 192 160 159 156 151 145 145 139 136 132 138 145 137 144 149 152 155 158 163 158 151 157 162 161 159 160 163 154 147 157 151 155 154 148 156 163 158 151 155 142 142 181 172 160 154 141 139 150 149 143 143 148 148 145 141 142 146 143 140 140 143 144 138 119 131 132 132 139 142 149 137 110 52 96 85 244
235 261 260 246 258 261 282 268 1 304 184 275 273 234 244 244 245 234 234 210 228 201 167 160 159 154 155 154 148 148 147 151 152 153 158 163 161 158 164 161 148 143 151 154 160 165 162 160 156 160 165 160 163 161 167 143 145 160 128 136 140 143 164 153 113 118 120 123 134 139 136 146 156 160 153 146 143 144 149 146 139 142 154 149 141 144 150 149 146 144 129 142 134 123 122 199 3
243 226 237 248 258 242 214 275 323 308 311 203 276 272 265 241 233 255 258 235 264 5 130 148 152 146 138 126 138 151 152 151 151 158 159 162 160 164 171 162 148 149 157 160 164 168 165 164 166 168 169 173 170 160 157 140 141 117 97 105 104 79 65 98 104 98 117 125 120 132 156 151 152 149 139 132 133 142 143 146 145 148 147 147 137 144 158 165 169 158 150 149 161 146 164 148 304
265 230 213 234 244 256 270 306 356 355 315 316 112 358 271 289 259 227 286 38 190 34 124 132 133 128 131 142 146 143 143 152 155 160 162 164 165 160 159 149 146 155 162 166 164 164 159 164 169 167 168 167 170 159 151 149 155 146 145 142 137 138 136 134 141 152 144 143 162 150 136 153 147 131 121 118 125 137 150 159 156 151 151 158 150 149 139 130 154 166 178 163 149 180 147 141 133
234 262 208 226 237 238 264 283 351 313 256 282 84 154 273 330 305 265 314 81 35 58 124 137 131 136 145 150 149 149 150 155 158 150 156 161 165 158 156 155 154 161 170 158 155 161 165 163 166 171 166 172 168 161 155 151 150 164 161 151 150 149 144 170 162 154 152 164 137 144 154 148 146 136 132 134 140 147 153 162 164 150 159 163 153 142 150 162 175 183 151 154 171 150 139 146 160
238 239 201 213 207 186 215 234 208 241 264 291 5 134 184 301 291 259 286 68 88 116 123 125 137 146 153 157 154 153 155 162 160 156 161 164 162 161 159 157 156 163 162 157 157 161 166 164 162 170 171 170 170 160 163 162 159 163 154 146 146 143 149 159 161 171 159 145 133 141 138 150 147 145 148 149 146 149 159 168 167 158 159 174 156 159 156 157 153 151 157 150 143 161 164 152 162
218 231 206 231 229 193 195 219 252 254 354 291 308 69 360 269 268 314 331 50 67 148 141 138 146 155 158 158 155 150 158 160 153 150 157 165 168 167 160 154 149 153 162 164 165 166 165 164 167 169 174 175 175 161 163 158 157 154 147 140 128 135 137 142 148 133 124 122 114 115 130 151 151 160 152 151 157 165 157 172 178 177 168 178 173 151 146 156 161 157 155 146 158 133 142 144 143
249 217 199 213 186 161 169 209 281 321 211 278 279 58 175 284 280 349 341 75 94 174 120 128 157 161 163 159 148 145 147 149 147 152 162 169 173 172 164 144 147 159 164 158 157 163 166 164 171 170 176 180 164 146 143 139 142 137 136 141 135 134 125 124 125 125 121 120 122 134 136 128 128 98 91 122 141 149 161 177 186 193 183 173 168 167 166 160 159 163 165 166 155 150 150 146 156
189 169 194 256 336 2 17 166 147 60 232 255 247 239 136 292 299 293 3 222 169 123 107 131 139 152 179 159 149 148 155 153 155 163 169 163 152 145 154 154 148 145 152 156 157 164 169 170 167 170 165 152 153 155 147 151 149 152 142 145 138 136 138 138 132 125 118 112 128 141 134 137 133 135 130 128 128 139 131 150 172 185 172 170 163 167 184 187 170 166 160 148 159 158 164 144 129
147 136 175 22 320 24 81 332 82 161 265 258 245 215 116 209 304 317 287 301 163 151 155 155 162 164 170 163 151 152 153 153 148 151 148 138 137 147 146 134 144 147 147 153 154 162 172 171 165 159 152 148 148 159 144 160 151 150 142 141 142 146 146 146 144 150 153 145 148 149 139 110 114 124 126 118 109 109 117 118 114 103 114 136 155 160 165 173 167 156 156 162 166 156 157 160 157
114 69 49 131 272 27 329 16 174 198 198 243 205 110 72 54 221 258 303 288 192 159 157 162 159 159 155 151 154 153 141 140 143 147 143 144 146 152 153 143 144 152 159 156 160 166 169 167 166 161 160 155 165 164 163 165 152 151 148 143 141 144 144 142 144 149 159 150 152 146 138 128 128 113 122 115 96 105 112 102 101 111 110 120 128 127 140 149 154 145 143 155 156 156 175 167 168
91 144 123 115 224 264 229 269 208 300 285 258 252 124 119 236 293 355 337 318 159 145 146 148 151 150 150 148 145 138 135 141 139 142 143 141 147 150 147 145 150 161 165 165 164 167 170 168 169 165 160 155 159 159 161 157 155 153 149 144 146 148 150 149 152 151 155 145 150 152 150 148 143 145 149 136 149 121 108 117 114 105 116 126 125 128 135 140 130 121 119 129 147 174 176 164 161
215 139 154 181 151 163 221 204 229 212 199 261 294 132 239 85 255 323 340 9 109 127 124 118 110 124 135 138 133 126 120 105 122 137 139 139 136 142 149 152 154 164 169 165 167 170 166 168 164 158 147 150 152 158 156 155 156 149 147 142 145 151 153 150 149 143 144 142 153 146 148 147 140 163 141 146 126 109 121 111 107 108 121 120 117 114 117 116 117 107 113 122 115 130 131 126 136
249 166 96 92 229 138 200 199 148 224 269 327 5 71 70 131 238 354 16 51 77 123 128 135 141 144 136 126 128 122 111 118 131 125 113 123 130 140 149 151 155 161 166 163 167 169 169 167 158 155 155 151 147 143 153 153 149 144 143 144 151 147 138 132 129 128 137 144 151 145 148 144 133 118 109 109 108 116 113 97 75 91 114 115 110 113 111 111 108 108 103 105 105 122 121 112 128
264 79 179 215 184 121 90 7 60 82 61 52 234 63 347 6 8 9 358 73 46 4 103 126 137 130 113 104 93 99 114 119 124 121 126 132 132 135 145 147 150 149 154 167 172 173 166 158 155 151 148 144 143 145 146 143 138 139 150 145 143 142 142 148 150 149 139 133 134 141 141 145 124 124 122 114 110 96 104 100 87 93 105 111 104 103 107 108 107 108 114 110 112 92 103 116 124
114 240 247 238 112 110 138 207 337 63 174 245 34 70 324 44 285 300 329 84 88 19 348 9 2 73 94 90 83 87 100 109 111 115 114 119 124 128 134 143 149 156 160 167 169 162 160 161 159 152 150 149 147 140 137 142 142 144 143 144 144 140 138 136 136 134 125 119 118 119 123 123 142 143 125 123 115 111 98 90 95 96 104 102 112 112 114 116 109 103 108 102 119 116 99 90 106
183 204 194 117 267 261 317 101 195 115 244 186 33 122 102 94 256 322 306 159 129 131 177 159 90 67 67 76 81 79 85 93 98 112 121 120 127 130 136 144 149 154 160 156 126 144 150 149 146 147 149 150 150 147 142 137 142 138 135 135 131 123 124 126 122 123 126 127 134 138 136 136 121 113 111 112 110 105 98 90 98 103 108 113 113 119 119 119 119 115 114 113 113 106 106 110 129
317 69 123 139 111 154 131 198 175 117 207 85 271 51 183 264 253 263 221 293 184 128 85 64 65 72 68 58 71 80 88 89 79 77 93 107 113 120 129 136 140 144 142 115 58 102 144 147 141 132 116 126 142 145 146 145 147 129 119 114 117 123 128 128 132 130 129 134 139 137 130 125 141 119 117 123 123 125 115 106 99 113 117 118 119 127 126 126 121 125 130 114 118 111 112 121 116
318 169 198 237 357 202 109 73 120 165 166 161 154 159 268 264 285 190 180 297 297 177 135 93 63 65 73 78 81 85 89 95 85 80 89 99 104 108 116 119 110 97 86 77 71 331 237 167 154 148 150 153 152 150 145 143 132 125 125 126 129 125 117 114 114 122 124 128 130 130 133 136 115 124 127 129 136 136 128 126 123 126 135 138 128 133 133 126 122 128 127 128 127 119 122 129 117
279 180 203 182 114 123 182 265 360 65 104 180 129 227 267 263 327 21 79 9 308 316 83 104 92 79 76 70 66 80 90 82 81 73 72 75 85 92 93 92 94 97 106 128 166 197 180 180 168 152 157 125 106 72 98 133 127 130 129 127 122 115 112 110 114 117 121 130 136 137 136 125 132 151 138 144 147 147 135 135 134 129 141 144 143 145 148 128 126 128 135 137 134 122 124 136 121